This demonstration page uses our WeatherBlox Daily Observations layout. Learn more.

Hourly Observations for May 26, 2019

Temp ( °F °C ) Dew Point ( °F °C ) Humidity (%) Winds ( mph kmh ) Pressure ( in mb ) Visibility ( mi km ) Precip ( " mm )
12:16 am 00:16 Cloudy 68 20 54 12.2 61 61 N 9 15 29.97 1015 10 16.09344 0 0
12:54 am 00:54 Cloudy with Light Rain 65 18.3 53 11.7 66 66 NE 6 9 29.97 1015 10 16.09344 0.001 0.001
1:54 am 01:54 Mostly Cloudy 64 17.8 53 11.7 68 68 NE 10 17 29.97 1015 10 16.09344 0.001 0.001
2:54 am 02:54 Clear 62 16.7 53 11.7 73 73 NW 5 7 29.97 1015 10 16.09344 0 0
3:54 am 03:54 Clear 58 14.4 52 11.1 81 81 N 7 11 29.97 1015 10 16.09344 0 0
4:54 am 04:54 Clear 56 13.3 51 10.6 84 84 N 6 9 29.97 1015 10 16.09344 0 0
5:54 am 05:54 Clear 56 13.3 50 10 81 81 N 7 11 29.97 1015 10 16.09344 0 0
6:54 am 06:54 Sunny 59 15 51 10.6 75 75 NNE 5 7 30 1016 10 16.09344 0 0
7:54 am 07:54 Sunny 63 17.2 53 11.7 70 70 E 9 15 30.03 1017 10 16.09344 0 0
8:54 am 08:54 Sunny 66 18.9 56 13.3 70 70 ESE 10 17 30.03 1017 10 16.09344 0 0
9:54 am 09:54 Sunny 69 20.6 60 15.6 73 73 SE 9 15 30.06 1018 10 16.09344 0 0
10:54 am 10:54 Sunny 73 22.8 61 16.1 66 66 SSE 8 13 30.06 1018 10 16.09344 0 0
11:54 am 11:54 Sunny 76 24.4 62 16.7 62 62 ESE 6 9 30.03 1017 10 16.09344 0 0
12:54 pm 12:54 Sunny 77 25 62 16.7 60 60 ESE 10 17 30 1016 10 16.09344 0 0
1:54 pm 13:54 Mostly Sunny 79 26.1 64 17.8 60 60 SE 9 15 30 1016 10 16.09344 0 0
2:54 pm 14:54 Sunny 81 27.2 63 17.2 54 54 SE 13 20 29.97 1015 10 16.09344 0 0
3:54 pm 15:54 Partly Cloudy 80 26.7 62 16.7 54 54 SE 13 20 29.94 1014 10 16.09344 0 0
4:54 pm 16:54 Partly Cloudy 81 27.2 63 17.2 54 54 SSE 16 26 29.94 1014 10 16.09344 0 0
5:54 pm 17:54 Sunny 80 26.7 63 17.2 56 56 S 13 20 29.88 1012 10 16.09344 0 0
6:54 pm 18:54 Partly Cloudy 78 25.6 63 17.2 60 60 SSE 12 19 29.88 1012 10 16.09344 0 0
7:54 pm 19:54 Sunny 76 24.4 61 16.1 60 60 SSE 12 19 29.88 1012 10 16.09344 0 0
8:54 pm 20:54 Mostly Clear 75 23.9 63 17.2 66 66 SSE 12 19 29.85 1011 10 16.09344 0 0
9:07 pm 21:07 Partly Cloudy with Nearby Thunderstorms 74 23.3 63 17.2 69 69 S 16 26 29.85 1011 10 16.09344 0 0
9:14 pm 21:14 Mostly Cloudy with Light Thunderstorms 73 22.8 65 18.3 76 76 S 10 17 29.85 1011 10 16.09344 0.01 0.254
9:54 pm 21:54 Cloudy with Heavy Thunderstorms 69 20.6 66 18.9 90 90 SSW 10 17 29.91 1013 2.5 4.02336 0.1 2.54
10:01 pm 22:01 Cloudy with Light Thunderstorms 69 20.6 66 18.9 90 90 SSW 6 9 29.94 1014 3 4.828032 0.03 0.762
10:16 pm 22:16 Cloudy with Nearby Thunderstorms 69 20.6 66 18.9 90 90 S 6 9 29.94 1014 10 16.09344 0.06 1.524
10:35 pm 22:35 Cloudy with Rain 69 20.6 66 18.9 90 90 SSW 18 30 29.97 1015 6 9.656064 0.08 2.032
10:54 pm 22:54 Cloudy with Rain 69 20.6 66 18.9 90 90 N 9 15 29.88 1012 4 6.437376 0.14 3.556
11:54 pm 23:54 Clear 65 18.3 62 16.7 90 90 ENE 10 17 29.88 1012 10 16.09344 0.02 0.508

Powered by AerisWeather